| time (UTC) | temp F | wind direction | speed MPH | gust MPH | rain 1hr in | rain 24hr in | rain mn in | humidity % | barometer mb |
| 20260506102606 | 52 | 162 | 0.0 | 0.0 | 0.02 | 0.74 | 1.38 | 90 | 1012.8 |
| 20260506092604 | 52 | 42 | 0.0 | 0.0 | 0.01 | 0.72 | 1.36 | 90 | 1012.5 |
| 20260506082606 | 50 | 184 | 0.0 | 0.0 | 0.11 | 0.71 | 1.35 | 94 | 1011.8 |
| 20260506072604 | 50 | 162 | 0.0 | 0.0 | 0.12 | 0.61 | 1.25 | 99 | 1011.5 |
| 20260506042606 | 50 | 330 | 0.0 | 0.0 | 0.13 | 0.16 | 0.80 | 97 | 1010.1 |
| 20260506035604 | 50 | 288 | 0.0 | 0.0 | 0.10 | 0.10 | 0.74 | 97 | 1010.1 |
| 20260506025605 | 50 | 36 | 0.0 | 0.0 | 0.00 | 0.00 | 0.65 | 96 | 1010.1 |
| 20260506022604 | 51 | 30 | 0.0 | 0.0 | 0.00 | 0.00 | 0.65 | 95 | 1010.1 |
| 20260506015606 | 50 | 36 | 0.0 | 0.0 | 0.00 | 0.00 | 0.66 | 95 | 1010.5 |
| 20260506012606 | 50 | 42 | 0.0 | 0.0 | 0.00 | 0.00 | 0.69 | 94 | 1010.8 |
| 20260506005604 | 51 | 42 | 0.0 | 0.0 | 0.00 | 0.00 | 0.77 | 94 | 1011.1 |
| 20260506002605 | 51 | 36 | 0.0 | 0.0 | 0.00 | 0.00 | 0.84 | 95 | 1011.5 |
| 20260505232604 | 51 | 42 | 0.0 | 0.0 | 0.00 | 0.00 | 0.91 | 94 | 1011.8 |
| 20260505222606 | 51 | 158 | 0.0 | 0.0 | 0.02 | 0.00 | 0.98 | 93 | 1013.2 |
| 20260505212607 | 51 | 178 | 1.0 | 1.0 | 0.01 | 0.97 | 0.97 | 91 | 1012.8 |
| 20260505205604 | 53 | 194 | 1.0 | 1.0 | 0.00 | 0.96 | 0.96 | 88 | 1012.8 |
| 20260505202606 | 53 | 170 | 1.0 | 1.0 | 0.02 | 0.96 | 0.96 | 95 | 1012.5 |
| 20260505195605 | 53 | 150 | 0.0 | 0.0 | 0.05 | 0.96 | 0.96 | 91 | 1011.8 |
| 20260505192604 | 55 | 6 | 1.0 | 1.0 | 0.04 | 0.94 | 0.94 | 91 | 1011.1 |
| 20260505185605 | 56 | 261 | 1.0 | 1.0 | 0.02 | 0.91 | 0.91 | 85 | 1010.8 |
| 20260505182605 | 56 | 84 | 1.0 | 1.0 | 0.11 | 0.90 | 0.90 | 90 | 1010.8 |
| 20260505175604 | 56 | 82 | 0.0 | 0.0 | 0.23 | 0.89 | 0.89 | 92 | 1010.8 |
| 20260505172606 | 58 | 84 | 1.0 | 1.0 | 0.13 | 0.79 | 0.79 | 84 | 1010.5 |
| 20260505165604 | 62 | 74 | 1.0 | 1.0 | 0.00 | 0.66 | 0.66 | 65 | 1010.5 |
| 20260505162605 | 66 | 351 | 0.0 | 0.0 | 0.00 | 0.66 | 0.66 | 60 | 1010.5 |
| 20260505122606 | 54 | 72 | 2.0 | 2.0 | 0.32 | 0.66 | 0.66 | 95 | 1011.8 |
| 20260505112606 | 58 | 293 | 3.0 | 4.0 | 0.00 | 0.34 | 0.38 | 75 | 1011.8 |